Location: Go�ngahuizen
(53.0821°N, 5.8849°E)
Time: 12:28:40
(UTC+00:00)

Cosmos 2219 Rocket - Pass Details

Date: 09 April 2020
Orbit: 829 x 845 km, 71.0° (Epoch: 27 May)

Event Time Altitude Azimuth Distance (km) Brightness Sun altitude
Rises 22:24:12 0° 327° (NNW) 3,393 6.6 -26.9°
Reaches altitude 10° 22:27:04 10° 340° (NNW) 2,453 5.6 -27.1°
Maximum altitude 22:31:45 26° 37° (NE) 1,585 3.9 -27.3°
Enters shadow 22:34:25 19° 76° (ENE) 1,910 4.0 -27.4°
